User: anonymous   Login
Location: Drayton Valley
(53.2170°N, 114.9830°W)
Time: 17:54:58
(UTC-06:00)
Language:

MOZ.5/SAFIR/RUBIN 5/SL-8 - Orbit

View from above orbital plane
View from above orbital plane
View from above satellite
View from above satellite

Ground track
Ground track

The orbit data is extracted from the following two-line orbital elements,

1 28898U 05043G   16272.07368971  .00000124  00000-0  34889-4 0  9999
2 28898  97.8924  67.7987 0018536 293.5526  66.3728 14.60129391581580
Epoch (UTC): 28 September 2016 01:46:06
Eccentricity: 0.0018536
inclination: 97.8924°
perigee height: 679 km
apogee height: 706 km
right ascension of ascending node: 67.7987°
argument of perigee: 293.5526°
revolutions per day: 14.60129391
mean anomaly at epoch: 66.3728°
orbit number at epoch: 58158

The dashed part of the orbit path shows where the satellite is in the earth's shadow,  

DLR